Regional Weather Roundup
Issued by NWS Wakefield, VA

Home | Current Version | Previous Version | Graphics & Text | Print | Product List | Glossary On
Versions: 1 2 3 4 5 6 7 8 9 10 11 12 13 14 15 16 17 18 19 20 21 22 23 24 25 26
000
ASUS41 KAKQ 242315
RWRAKQ

REGIONAL WEATHER ROUNDUP
NATIONAL WEATHER SERVICE WAKEFIELD VA
700 PM EDT WED MAY 24 2017

Note: "fair" indicates few or no clouds below 12,000 feet with no
significant weather and/or obstructions to visibility. * = Denotes
station may not report precipitation (e.g., rain,snow,etc.),
thunder or fog.

VAZ042-051-052>054-056-250000-
NORTHERN VIRGINIA

CITY           SKY/WX    TMP DP  RH WIND       PRES   REMARKS
WASH NATIONAL  CLOUDY    65  58  78 SE13      29.71F
DULLES         CLOUDY    62  55  77 SE10      29.70F
FORT BELVOIR   CLOUDY    63  57  80 SE5       29.70F
QUANTICO       CLOUDY    64  60  87 E12       29.71S
FREDERICKSBRG* CLOUDY    63  60  90 E8        29.69S
STAFFORD*      CLOUDY    62  60  96 E12       29.73F
WARRENTON      CLOUDY    62  57  84 E7        29.67F
CULPEPER*      LGT RAIN  62  60  95 SE3       29.69F
MANASSAS*      CLOUDY    62  58  86 E8        29.70F
LEESBURG*      CLOUDY    63  61  94 E5        29.71S
WINCHESTER     CLOUDY    57  55  94 E8        29.69S FOG
FRONT ROYAL*   CLOUDY    59  59 100 E3        29.67S
LURAY*         CLOUDY    63  57  82 NE8       29.65S
$$

VAZ048-049-060>072-079>083-250000-
CENTRAL AND SOUTH CENTRAL VIRGINIA

CITY           SKY/WX    TMP DP  RH WIND       PRES   REMARKS
RICHMOND       CLOUDY    63  60  90 E12       29.68F
CHESTERFIELD*  NOT AVBL
PETERSBURG*    CLOUDY    63  59  87 E14       29.66F
HANOVER        CLOUDY    62  57  83 E6        29.70R
TAPPAHANNOCK*  CLOUDY    63  62  97 E9        29.71R
QUINTON*       CLOUDY    62  62  99 SE7G20    29.69S
CHARLOTTSVILLE LGT RAIN  62  60  93 E6        29.65F FOG
GORDONSVILLE*  CLOUDY    60  60  99 MISG      29.66F FOG
ORANGE*        CLOUDY    61  59  94 SE5       29.67S
LOUISA*        CLOUDY    64  63  94 CALM      29.66S FOG
BUMPASS*       CLOUDY    60  60 100 E10G17    29.68S
FARMVILLE*     LGT RAIN  65  61  87 E5        29.61F
CREWE*         CLOUDY    64  60  87 E6        29.63F
FORT PICKETT*  CLOUDY    64  60  88 E15G21    29.63F
CHASE CITY*    CLOUDY    65  64  94 E7        29.61F
CLARKSVILLE*   CLOUDY    66  66 100 E8        29.59F
SOUTH HILL*    CLOUDY    65  65  99 NE7       29.67F
LAWRENCEVILLE* CLOUDY    65  63  93 NE6       29.62F
EMPORIA*       CLOUDY    64  63  94 NE7       29.66F
$$

VAZ088>098-250000-
SOUTHEAST VIRGINIA

CITY           SKY/WX    TMP DP  RH WIND       PRES   REMARKS
NORFOLK        CLOUDY    59  56  89 E16       29.71S
VIRGINIA BEACH CLOUDY    60  56  86 E10       29.71S
NORFOLK NAVAL  CLOUDY    62  56  80 E10       29.73S
WEST POINT*    CLOUDY    62  58  88 E9        29.73S
SALUDA*        CLOUDY    61  59  91 E13G21    29.72S
NEWPORT NEWS   CLOUDY    61  57  87 E13       29.72R
LANGLEY AFB    CLOUDY    61  58  90 E14       29.71S
FORT EUSTIS    CLOUDY    63  58  83 E9        29.69S
WILLIAMSBURG*  CLOUDY    63  61  94 CALM      29.72S
HR EXEC AP*    CLOUDY    63  55  77 E10G16    29.69S
FRANKLIN*      CLOUDY    64  59  83 E13       29.68F
US460-WAKEFLD  CLOUDY    63  60  90 E8G16     29.68F
$$

VAZ020-022-025-037-045-250000-
WEST CENTRAL AND SOUTHWEST VIRGINIA

CITY           SKY/WX    TMP DP  RH WIND       PRES   REMARKS
STAUNTON*      RAIN      60  56  87 E5        29.65F
WAYNESBORO*    CLOUDY    58  58 100 E7        29.64S
HOT SPRINGS VA HVY RAIN  45  43  93 E13G21    29.64S VSB<1/4
LYNCHBURG      LGT RAIN  61  60  97 E10       29.60F FOG
DANVILLE       RAIN      67  67 100 VRB5      29.59R FOG
SOUTH BOSTON*  CLOUDY    66  65  95 SE6       29.59F
MARTINSVILLE   RAIN      66  64  95 CALM      29.58R
ROANOKE        HVY RAIN  60  60 100 CALM      29.59F FOG
BLACKSBURG     HVY RAIN  58  56  95 W3        29.63R
DUBLIN*        RAIN      58  55  89 NE7       29.59R
MARION*        LGT RAIN  60  58  90 N7        29.57F
HILLSVILLE*    CLOUDY    60  56  85 S8G23     29.56F
RICHLANDS*     CLOUDY    59  58  96 CALM      29.52S
WISE*          PTSUNNY   64  54  68 S8        29.49F
ABINGDON*      CLOUDY    63  60  92 E7        29.50F
$$

MDZ021>025-VAZ099-100-250000-
SOUTHERN MARYLAND AND THE DELMARVA PENINSULA

CITY           SKY/WX    TMP DP  RH WIND       PRES   REMARKS
PATUXENT RIVER CLOUDY    62  60  93 E14       29.71F
BAY BRIDGE APT CLOUDY    64  55  72 SE15G21   29.74R
LEONARDTOWN    CLOUDY    61  55  82 E8        29.73F
DOVER          CLOUDY    62  59  90 E17       29.75R
GEORGETOWN     CLOUDY    60  54  80 E12       29.78R
EASTON         PTSUNNY   63  54  72 SE9G18    29.79R
CAMBRIDGE      CLOUDY    61  55  82 E9        29.74F
SALISBURY      CLOUDY    59  55  87 E12       29.76S
OCEAN CITY     CLOUDY    58  54  86 E12       29.79R
WALLOPS ISLAND CLOUDY    58  56  93 E13       29.77R
ACCOMACK*      CLOUDY    59  22  24 E14G21    29.75R
$$

NCZ012>017-030>032-250000-
NORTH CENTRAL AND EASTERN NORTH CAROLINA

CITY           SKY/WX    TMP DP  RH WIND       PRES   REMARKS
ROANOKE RAPIDS CLOUDY    70  66  88 E6        29.62F
RALEIGH        CLOUDY    70  67  90 S6        29.59F
ELIZABETH CITY CLOUDY    63  61  93 E15       29.71S
AHOSKIE*         N/A     68  65  91 E5        29.65F
EDENTON*       CLOUDY    68  64  87 E14       29.69S
CURRITUCK*     CLOUDY    62  62 100 NE9       29.74R
KILL DEVIL HLS CLOUDY    63  62  97 CALM      29.70S
MANTEO         CLOUDY    64  61  90 E12       29.72R
CAPE HATTERAS  NOT AVBL
TARBORO*       NOT AVBL
GOLDSBORO      CLOUDY    75  75 100 SW6       29.60R
WASHINGTON     CLOUDY    75  70  84 SE7       29.63F
GREENVILLE     LGT RAIN  77  72  83 SE8       29.65F
NEW BERN       CLOUDY    77  72  84 S10       29.65F
WILMINGTON     LGT RAIN  72  69  90 S12       29.63F
$$

VAZ048-250000-
ELSEWHERE

CITY           SKY/WX    TMP DP  RH WIND       PRES   REMARKS
HARRISBURG PA  CLOUDY    67  55  65 S12       29.71S
BALTIMORE      CLOUDY    65  56  72 SE12G21   29.72S
ANNAPOLIS      CLOUDY    66  59  78 SE20      29.74R
ANDREWS AFB    CLOUDY    63  57  80 E7        29.71S
PHILADELPHIA   CLOUDY    66  50  56 E13       29.75F
HENDERSON NC   RAIN      66  64  95 E5        29.59F
GREENSBORO     RAIN      65  65 100 SE12      29.53F FOG
ROCKY MOUNT    RAIN      72  72 100 SE10G20   29.60R FOG
$$

VAZ100-250000-
MARINE

STATION/POSITION TIME  TEMP    WIND        PRES    WAVE   SWELL
                       AIR SEA DIR/SP/G            HT/PER HT/PER
                 (UTC) (F)     (DEG/KT/KT) (MB)    (FT/S) (FT/S)
CAPE MAY NJ      2242   58 62   60/  6/ 12 1008.1R
LEWES DE         2242   58 63   80/ 16/ 18 1008.2R
15NM E FENWICK I 2250   57 57   40/ 14/ 17 1008.2R   5/ 7   3/ 7
WACHAPREAGUE VA  2236   59 65   50/ 16/ 20 1007.0R
THOMAS POINT MD  2300   63 65  120/ 16/ 17   N/A
GOOSES REEF MD   2300   64 62  110/ 16/ 17 1007.1    1/ 2
COVE POINT MD    2236   62     130/ 13/ 17 1007.2F
SOLOMONS ISLAND  2236   63 66  110/ 13/ 15   N/A
BISHOPS HEAD MD  2236   62 65   90/ 12/ 14 1007.3F
PINEY POINT MD   2236          120/ 17/ 18   N/A
POTOMAC MD       2250   63     120/ 16/ 17 1005.1F
CAMBRIDGE MD     2236   62 68                N/A
LEWISETTA VA     2236   64 67  110/ 15/ 17 1005.8F
RAPPAHANNOCK LGT 2236           70/ 16/ 17 1007.6R
STINGRAY PT      2250   62     110/ 16/ 19 1006.6R
YORK RVR RNG VA  2236   62     100/ 15/ 17 1005.9R
YORKTOWN VA      2236   62 68  100/ 11/ 15 1006.0R
JAMESTOWN VA     2250   63      80/ 12/ 16   N/A
DOMINION TERM VA 2236   62      20/  2/  6 1006.1S
KIPTOPEKE VA     2236      65   70/ 12/ 18   N/A
CHES BAY BRIDGE  2236   60 66   70/ 19/ 21 1006.1S
CAPE HENRY VA    2236   59      70/ 17/ 19   N/A
WILLOUBY STN VA  2236   60      80/ 17/ 19 1005.9S
S CRANEY ISL VA  2236   62      80/ 12/ 18 1006.0R
CAPE HENRY BUOY  2212      62                N/A     4/ 6
1ST LANDING BUOY 2300   60 66              1006.4    2/ 3
CAPE CHARLES BUO 2221      62                N/A     4/ 6
64NM E OF VA BCH 2250   61 65   50/  8/ 10 1007.6R   4/ 8   3/ 8
DUCK PIER NC     2236   62 65   60/ 14/ 15 1005.9R
44100 DUCK FRF   2235      63                N/A     4/ 6
44056 DUCK FRF   2230      65                N/A     4/ 6
OREGON INLET NC  2236   65 72   60/  9/ 12 1005.9R
HATTERAS NC      2236   76 74  170/  6/  9 1005.4R
DIAMOND SHLS NC  2250   76 76  220/ 10/ 12 1005.6R   4/ 8   3/ 8
CAPE LOOKOUT NC  2200   77     200/ 10/ 13 1004.6R
$$




USA.gov is the U.S. government's official web portal to all federal, state and local government web resources and services.